Regional Weather Roundup
Issued by NWS

Home | Current Version | Previous Version | Graphics & Text | Print | Product List | Glossary On
Versions: 1 2 3 4 5 6 7 8 9 10 11 12 13 14 15 16 17 18 19 20 21 22 23 24 25 26 27 28 29 30 31 32 33 34 35 36 37 38 39 40 41 42 43 44 45 46 47 48 49 50
000
ASUS43 KTOP 262208
RWRKS

WEATHER ROUNDUP FOR KANSAS
NATIONAL WEATHER SERVICE GOODLAND KS
500 PM CDT WED APR 26 2017

NOTE:  "FAIR" INDICATES FEW OR NO CLOUDS BELOW 12,000 FEET WITH NO
SIGNIFICANT WEATHER AND/OR OBSTRUCTIONS TO VISIBILITY.

KSZ001>006-013>018-027>032-041>047-262300-
NORTHWEST KANSAS

CITY           SKY/WX    TMP DP  RH WIND       PRES   REMARKS
GOODLAND       SUNNY     58  27  30 N13       29.71F
HAYS           MOSUNNY   54  33  45 N15G23    29.71F
HILL CITY      MOSUNNY   57  32  38 N14G22    29.71F
RUSSELL        MOSUNNY   54  34  46 NW21      29.70F
$$

KSZ061>065-074>080-084>089-262300-
SOUTHWEST KANSAS

CITY           SKY/WX    TMP DP  RH WIND       PRES   REMARKS
DODGE CITY     PTSUNNY   58  33  39 N18       29.71F
ELKHART          N/A     58  31  36 NW14        N/A
GARDEN CITY    MOSUNNY   58  30  34 NW17G23   29.72F
GREAT BEND     MOSUNNY   55  38  52 N17       29.70F
LIBERAL        MOSUNNY   60  33  36 NW15G23   29.74F
PRATT          MOSUNNY   54  34  47 N20       29.69F
$$

KSZ066>073-081>083-090>101-262300-
SOUTHEAST KANSAS

CITY           SKY/WX    TMP DP  RH WIND       PRES   REMARKS
CHANUTE        CLOUDY    47  41  80 NW8       29.62F
COFFEYVILLE    CLOUDY    48  40  73 NW10      29.65S
HUTCHINSON     CLOUDY    55  35  47 N15       29.67F
MEDICINE LODGE   N/A     58  36  43 N13G22    29.68F
NEWTON         CLOUDY    51  37  58 NW17G24   29.66F
PARSONS        CLOUDY    48  41  76 N9        29.64F
WICHITA INTL   PTSUNNY   54  37  52 NW18G26   29.66F
WICHITA JABRA  PTSUNNY   54  38  54 N21       29.65F
WICHITA MCCONL CLOUDY    55  36  49 N16G22    29.65F
WINFIELD       CLOUDY    53  39  59 N12       29.68S
$$

KSZ007>012-019>026-033>040-048>060-102>105-262300-
NORTHEAST KANSAS

CITY           SKY/WX    TMP DP  RH WIND       PRES   REMARKS
CONCORDIA      CLOUDY    49  36  61 NW15G23   29.68F
EMPORIA        CLOUDY    51  38  60 NW14      29.63F
LAWRENCE       CLOUDY    50  39  66 NW16      29.61F
MANHATTAN      CLOUDY    53  36  52 VRB7G20   29.65S
MARYSVILLE     CLOUDY    46  34  61 N18G24    29.66F
OLATHE IND     LGT RAIN  48  40  73 NW8       29.60F
OLATHE EXE     CLOUDY    47  40  76 N9        29.60R
SALINA         CLOUDY    54  37  52 N17       29.68F
TOPEKA BILLARD CLOUDY    51  39  63 NW13G20   29.63S
TOPEKA FORBES  CLOUDY    51  38  60 NW16      29.62F
$$



USA.gov is the U.S. government's official web portal to all federal, state and local government web resources and services.